Columbia Airport, CA

2:03 PM PST on December 11, 2019 (GMT -0800)
Columbia Airport

Weather History for KO22 - August, 2019

Change the Weather History Date:

Wednesday, August 14, 2019

  Actual Average (WUND) Record (WUND)
Temperature  
Mean Temperature 80 °F -  
Max Temperature 100 °F - - (-1)
Min Temperature 60 °F - - (-1)
Cooling Degree Days 15    
Growing Degree Days 30 (Base 50)    
Moisture  
Dew Point 48 °F    
Average Humidity 38    
Maximum Humidity 68    
Minimum Humidity 12    
Precipitation  
Precipitation 0.00 in - - ()
Sea Level Pressure  
Sea Level Pressure 30.04 in    
Wind  
Wind Speed 1 mph (SW)    
Max Wind Speed 7 mph    
Max Gust Speed 15 mph    
Visibility 10 miles    
Events      
Averages and records for this station are not official NWS values.
T = Trace of Precipitation, MM = Missing Value Source: NWS Daily Summary

Daily Weather History Graph

Daily Weather History Graph

Search for Another Location

Airport or City:

Astronomy

Aug. 14, 2019 Rise Set
Actual Time 6:15 AM PDT 7:56 PM PDT
Civil Twilight 5:47 AM PDT 8:24 PM PDT
Nautical Twilight 5:13 AM PDT 8:58 PM PDT
Astronomical Twilight 4:37 AM PDT 9:34 PM PDT
Moon 7:52 PM PDT (8/14) 5:19 AM PDT (8/14)
Length of Visible Light 14h 36m
Length of Day
13h 40m
Full, 100% of the Moon is Illuminated
Aug 14
Full
Aug 15
Full
Aug 23
Last Quarter
Aug 30
New
Sep 5
First Quarter

Hourly Weather History & Observations

Time (PDT) Temp. Heat Index Dew Point Humidity Pressure Visibility Wind Dir Wind Speed Gust Speed Precip Events Conditions
12:15 AM 66.2 °F - 48.2 °F 52% 30.04 in 10.0 mi Calm Calm - N/A   Clear
12:35 AM 66.2 °F - 48.2 °F 52% 30.05 in 10.0 mi Calm Calm - N/A   Clear
12:55 AM 64.4 °F - 48.2 °F 56% 30.05 in 10.0 mi Calm Calm - N/A   Clear
1:15 AM 64.4 °F - 48.2 °F 56% 30.05 in 10.0 mi Calm Calm - N/A   Clear
1:35 AM 64.4 °F - 48.2 °F 56% 30.04 in 10.0 mi Calm Calm - N/A   Clear
1:55 AM 64.4 °F - 48.2 °F 56% 30.04 in 10.0 mi Calm Calm - N/A   Clear
2:15 AM 64.4 °F - 48.2 °F 56% 30.04 in 10.0 mi Calm Calm - N/A   Clear
2:35 AM 64.4 °F - 48.2 °F 56% 30.03 in 10.0 mi Calm Calm - N/A   Clear
2:55 AM 62.6 °F - 48.2 °F 59% 30.03 in 10.0 mi Calm Calm - N/A   Clear
3:15 AM 62.6 °F - 48.2 °F 59% 30.03 in 10.0 mi Calm Calm - N/A   Clear
3:35 AM 62.6 °F - 48.2 °F 59% 30.03 in 10.0 mi Calm Calm - N/A   Clear
3:55 AM 64.4 °F - 50.0 °F 59% 30.02 in 10.0 mi Calm Calm - N/A   Clear
4:15 AM 64.4 °F - 50.0 °F 59% 30.03 in 10.0 mi Calm Calm - N/A   Clear
4:35 AM 62.6 °F - 50.0 °F 63% 30.03 in 10.0 mi Calm Calm - N/A   Clear
4:55 AM 62.6 °F - 50.0 °F 63% 30.03 in 10.0 mi Calm Calm - N/A   Clear
5:15 AM 62.6 °F - 50.0 °F 63% 30.03 in 10.0 mi North - - N/A   Clear
5:35 AM 60.8 °F - 50.0 °F 68% 30.03 in 10.0 mi Calm Calm - N/A   Clear
5:55 AM 60.8 °F - 50.0 °F 68% 30.04 in 10.0 mi Calm Calm - N/A   Clear
6:15 AM 60.8 °F - 50.0 °F 68% 30.04 in 10.0 mi Calm Calm - N/A   Clear
6:55 AM 62.6 °F - 50.0 °F 63% 30.05 in 10.0 mi Calm Calm - N/A   Clear
7:15 AM 64.4 °F - 51.8 °F 64% 30.05 in 10.0 mi Calm Calm - N/A   Clear
7:35 AM 66.2 °F - 53.6 °F 64% 30.06 in 10.0 mi Calm Calm - N/A   Clear
7:55 AM 71.6 °F - 53.6 °F 53% 30.06 in 10.0 mi Calm Calm - N/A   Clear
8:15 AM 73.4 °F - 57.2 °F 57% 30.06 in 10.0 mi Calm Calm - N/A   Clear
8:35 AM 77.0 °F - 57.2 °F 50% 30.06 in 10.0 mi Calm Calm - N/A   Clear
8:55 AM 80.6 °F 80.5 °F 55.4 °F 42% 30.06 in 10.0 mi Calm Calm - N/A   Clear
9:15 AM 84.2 °F 82.8 °F 53.6 °F 35% 30.06 in 10.0 mi Calm Calm - N/A   Clear
9:35 AM 86.0 °F - 50.0 °F 29% 30.06 in 10.0 mi Calm Calm - N/A   Clear
9:55 AM 87.8 °F - 48.2 °F 25% 30.06 in 10.0 mi Variable 3.5 mph - N/A   Clear
10:15 AM 89.6 °F - 48.2 °F 24% 30.06 in 10.0 mi Calm Calm - N/A   Clear
10:35 AM 89.6 °F - 46.4 °F 22% 30.07 in 10.0 mi Calm Calm - N/A   Clear
10:55 AM 91.4 °F - 46.4 °F 21% 30.07 in 9.0 mi Variable 3.5 mph - N/A   Clear
11:15 AM 93.2 °F - 46.4 °F 20% 30.07 in 10.0 mi Variable 3.5 mph - N/A   Clear
11:35 AM 93.2 °F - 44.6 °F 19% 30.07 in 10.0 mi Variable 3.5 mph - N/A   Clear
11:55 AM 93.2 °F - 46.4 °F 20% 30.06 in 10.0 mi Variable 4.6 mph - N/A   Clear
12:15 PM 95.0 °F - 44.6 °F 18% 30.06 in 10.0 mi Variable 3.5 mph - N/A   Clear
12:35 PM 95.0 °F - 44.6 °F 18% 30.06 in 10.0 mi Variable 5.8 mph - N/A   Clear
12:55 PM 98.6 °F - 44.6 °F 16% 30.05 in 10.0 mi Variable 6.9 mph - N/A   Clear
1:15 PM 96.8 °F - 44.6 °F 17% 30.05 in 10.0 mi Variable 4.6 mph 12.7 mph N/A   Clear
1:35 PM 96.8 °F - 44.6 °F 17% 30.05 in 10.0 mi Variable 4.6 mph - N/A   Clear
1:55 PM 98.6 °F - 42.8 °F 15% 30.04 in 10.0 mi Variable 6.9 mph - N/A   Clear
2:15 PM 98.6 °F - 37.4 °F 12% 30.04 in 10.0 mi Calm Calm - N/A   Clear
2:35 PM 98.6 °F - 41.0 °F 14% 30.03 in 10.0 mi Calm Calm - N/A   Clear
2:55 PM 100.4 °F - 44.6 °F 15% 30.03 in 10.0 mi Calm Calm 11.5 mph N/A   Clear
3:15 PM 98.6 °F - 44.6 °F 16% 30.03 in 10.0 mi Variable 4.6 mph - N/A   Clear
3:55 PM 98.6 °F - 44.6 °F 16% 30.02 in 10.0 mi Variable 5.8 mph 15.0 mph N/A   Clear
4:15 PM 100.4 °F - 44.6 °F 15% 30.02 in 10.0 mi Variable 5.8 mph - N/A   Clear
4:35 PM 100.4 °F - 42.8 °F 14% 30.01 in 10.0 mi Variable 4.6 mph - N/A   Clear
4:55 PM 98.6 °F - 42.8 °F 15% 30.01 in 10.0 mi SW 4.6 mph - N/A   Clear
5:15 PM 98.6 °F - 42.8 °F 15% 30.01 in 10.0 mi Variable 4.6 mph - N/A   Clear
5:35 PM 96.8 °F - 42.8 °F 16% 30.01 in 10.0 mi SSW 4.6 mph - N/A   Clear
5:55 PM 96.8 °F - 42.8 °F 16% 30.01 in 10.0 mi Variable 5.8 mph - N/A   Clear
6:15 PM 96.8 °F - 44.6 °F 17% 30.00 in 10.0 mi Variable 3.5 mph - N/A   Clear
6:35 PM 96.8 °F - 44.6 °F 17% 30.00 in 10.0 mi Variable 5.8 mph - N/A   Clear
6:55 PM 95.0 °F - 44.6 °F 18% 30.01 in 10.0 mi Variable 5.8 mph - N/A   Clear
7:15 PM 93.2 °F - 44.6 °F 19% 30.01 in 10.0 mi Variable 5.8 mph - N/A   Clear
7:55 PM 86.0 °F - 46.4 °F 25% 30.02 in 10.0 mi Calm Calm - N/A   Clear
8:15 PM 84.2 °F - 50.0 °F 30% 30.03 in 10.0 mi Variable 3.5 mph - N/A   Clear
8:35 PM 80.6 °F - 51.8 °F 37% 30.03 in 10.0 mi Variable 3.5 mph - N/A   Clear
8:55 PM 80.6 °F - 51.8 °F 37% 30.03 in 10.0 mi Calm Calm - N/A   Clear
9:15 PM 78.8 °F - 51.8 °F 39% 30.04 in 10.0 mi Calm Calm - N/A   Clear
9:35 PM 77.0 °F - 50.0 °F 39% 30.04 in 10.0 mi Calm Calm - N/A   Clear
9:55 PM 73.4 °F - 50.0 °F 44% 30.04 in 10.0 mi Calm Calm - N/A   Clear
10:15 PM 73.4 °F - 50.0 °F 44% 30.04 in 10.0 mi Calm Calm - N/A   Clear
10:35 PM 71.6 °F - 50.0 °F 46% 30.04 in 10.0 mi Calm Calm - N/A   Clear
10:55 PM 71.6 °F - 51.8 °F 50% 30.04 in 10.0 mi Calm Calm - N/A   Clear
11:15 PM 71.6 °F - 51.8 °F 50% 30.04 in 10.0 mi Variable 3.5 mph - N/A   Clear
11:35 PM 71.6 °F - 51.8 °F 50% 30.04 in 10.0 mi Calm Calm - N/A   Clear
11:55 PM 69.8 °F - 51.8 °F 53% 30.04 in 10.0 mi Calm Calm - N/A   Clear